Regional Weather Roundup
Issued by NWS

Home | Current Version | Previous Version | Graphics & Text | Print | Product List | Glossary On
Versions: 1 2 3 4 5 6 7 8 9 10 11 12 13 14 15 16 17 18 19 20 21 22 23 24 25 26 27 28 29 30 31 32 33 34 35 36 37 38 39 40 41 42 43 44 45 46 47 48 49 50
000
ASUS43 KOAX 261002
RWRNE

WEATHER ROUNDUP FOR NEBRASKA
NATIONAL WEATHER SERVICE OMAHA NE
500 AM CDT WED JUL 26 2017

NOTES: SATELLITE DATA IS BEING USED TO AUGMENT CLOUD COVER ABOVE
       12000 FEET.
       "FAIR" INDICATES FEW OR NO CLOUDS BELOW 12,000 FEET WITH NO
       SIGNIFICANT WEATHER AND/OR OBSTRUCTIONS TO VISIBILITY.


NEZ001>004-019>022-054>056-261100-
NEBRASKA PANHANDLE

CITY           SKY/WX    TMP DP  RH WIND       PRES   REMARKS
SCOTTSBLUFF    CLOUDY    71  60  68 N8        30.11R
ALLIANCE       CLOUDY    67  65  93 N10       30.07F
CHADRON        CLOUDY    68  55  63 N5        30.08S
GORDON         CLOUDY    69  64  86 N8        30.07R
KIMBALL        CLOUDY    69  64  83 N10       30.16R
SIDNEY         CLOUDY    67  64  90 N12       30.10R
$$

NEZ057>060-069>072-079>082-261100-
SOUTHWEST NEBRASKA

CITY           SKY/WX    TMP DP  RH WIND       PRES   REMARKS
NORTH PLATTE   CLOUDY    69  67  93 NE12G17   29.98R
IMPERIAL       CLOUDY    70  66  87 N16       29.96R
LEXINGTON      CLOUDY    70  68  93 E17G23    29.95S
MCCOOK         CLOUDY    74  70  87 E8        29.88S
OGALLALA       CLOUDY    71  64  80 NE9       30.01R
$$

NEZ005>010-023>029-035>040-094-261100-
NORTH CENTRAL NEBRASKA

CITY           SKY/WX    TMP DP  RH WIND       PRES   REMARKS
VALENTINE      CLOUDY    70  66  87 NE8       29.99R
AINSWORTH      LGT RAIN  67  67 100 CALM      29.98F
BROKEN BOW     CLOUDY    68  66  93 E8        29.98S
O`NEILL        LGT RAIN  69  69  99 S8        29.96R
ORD            CLOUDY    69  66  90 SE5       29.97S
THEDFORD       CLOUDY    68  67  97 E5        30.02F
$$

NEZ041-046>049-061>064-073>077-083>087-261100-
SOUTH CENTRAL NEBRASKA

CITY           SKY/WX    TMP DP  RH WIND       PRES   REMARKS
GRAND ISLAND   LGT RAIN  70  70 100 E3        30.01S
AURORA         RAIN      71  71 100 NW6       30.01R
HASTINGS       RAIN      71  69  93 NE12      30.02R FOG
HEBRON         TSTM      74  72  92 CALM      29.97R
HOLDREGE       CLOUDY    71  68  90 E15       29.94R
KEARNEY        TSTM      70  69  97 E14       29.97F FOG
YORK           LGT RAIN  73  73 100 SW5       30.00R
$$

NEZ011>018-030>034-042>045-261100-
NORTHEAST NEBRASKA

CITY           SKY/WX    TMP DP  RH WIND       PRES   REMARKS
NORFOLK        HVY RAIN  70  69  97 E10       29.98F FOG
ALBION         LGT RAIN  71  70  95 E10       29.96F
BLAIR          CLOUDY    81  71  71 S10G20    29.93S
COLUMBUS       RAIN      72  71  97 N7        29.99R
FREMONT        TSTM      76  73  91 SE7       29.99R
TEKAMAH        LGT RAIN  80  73  79 CALM      29.95R
WAYNE          RAIN      72  71  99 CALM      30.00R
$$

NEZ050>053-065>068-078-088>093-261100-
SOUTHEAST NEBRASKA

CITY           SKY/WX    TMP DP  RH WIND       PRES   REMARKS
LINCOLN        CLOUDY    83  70  64 W12       29.96R
OMAHA EPPLEY   CLOUDY    81  73  76 SE14      29.93S
BEATRICE       CLOUDY    82  71  70 S10       29.93R
FALLS CITY     CLOUDY    80  71  74 S12       29.95S
NEBRASKA CITY  CLOUDY    78  74  88 S9        29.95S
PLATTSMOUTH    CLOUDY    79  71  76 SE10      29.94R
$$

NEZ044-045-051>053-067-261100-
OMAHA AREA

CITY           SKY/WX    TMP DP  RH WIND       PRES   REMARKS
OMAHA EPPLEY   CLOUDY    81  73  76 SE14      29.93S
BLAIR          CLOUDY    81  71  71 S10G20    29.93S
FREMONT        TSTM      76  73  91 SE7       29.99R
MILLARD        CLOUDY    82  73  75 SE8       29.93S
PLATTSMOUTH    CLOUDY    79  71  76 SE10      29.94R
WAHOO          HVY RAIN  77  71  84 W12G18    29.95R
$$




USA.gov is the U.S. government's official web portal to all federal, state and local government web resources and services.